GW2818 Weather Reports


Display with metric or nautical units.
time (UTC)temp
F
wind
direction
speed
MPH
gust
MPH
rain 1hr
in
rain 24hr
in
rain mn
in
humidity
%
barometer
mb
20260901224549 82 0 0.0 1.0 0.00 0.00 0.00 77 1017.5
20260901223044 83 0 0.0 2.0 0.00 0.00 0.00 75 1017.1
20260901221616 83 0 0.0 1.0 0.00 0.00 0.00 75 1017.3
20260901214545 86 0 0.0 2.0 0.00 0.00 0.00 68 1017.5
20260901213100 86 0 0.0 2.0 0.00 0.00 0.00 72 1017.2
20260901211549 85 0 0.0 2.0 0.00 0.00 0.00 74 1016.9
20260901210050 85 0 0.0 6.0 0.00 0.00 0.00 74 1017.0
20260901204555 84 0 0.0 3.0 0.00 0.00 0.00 73 1016.9
20260901203059 85 0 0.0 3.0 0.00 0.00 0.00 73 1016.9
20260901201552 85 0 0.0 4.0 0.00 0.00 0.00 72 1017.1
20260901200112 86 59 0.0 3.0 0.00 0.00 0.00 72 1017.2
20260901194603 86 0 0.0 2.0 0.00 0.00 0.00 73 1017.3
20260901193049 87 0 0.0 4.0 0.00 0.00 0.00 71 1017.3
20260901191624 88 83 1.0 4.0 0.00 0.00 0.00 70 1017.4
20260901190058 88 0 0.0 2.0 0.00 0.00 0.00 73 1017.6
20260901184545 88 121 0.0 4.0 0.00 0.00 0.00 72 1017.5
20260901183051 87 0 0.0 4.0 0.00 0.00 0.00 75 1017.6
20260901181612 87 0 0.0 4.0 0.00 0.00 0.00 76 1017.8
20260901180050 85 0 0.0 4.0 0.00 0.00 0.00 76 1017.9
20260901174546 85 96 0.0 3.0 0.00 0.00 0.00 75 1017.9
20260901173047 85 82 1.0 5.0 0.00 0.00 0.00 75 1017.9
20260901171549 86 94 0.0 5.0 0.00 0.00 0.00 75 1018.0
20260901170058 85 79 0.0 2.0 0.00 0.00 0.00 77 1018.1
20260901164555 84 0 0.0 5.0 0.00 0.00 0.00 79 1018.0
20260901163053 83 0 0.0 2.0 0.00 0.00 0.00 82 1018.3
20260901161553 83 71 0.0 3.0 0.00 0.00 0.00 81 1018.4
20260901160108 83 0 0.0 3.0 0.00 0.00 0.00 82 1018.3
20260901154551 82 0 0.0 3.0 0.00 0.00 0.00 83 1018.2
20260901153100 81 0 0.0 2.0 0.00 0.00 0.00 85 1017.9
20260901151546 80 0 0.0 0.0 0.00 0.00 0.00 87 1018.0
20260901150058 79 0 0.0 3.0 0.00 0.00 0.00 88 1017.8
20260901144551 78 0 0.0 2.0 0.00 0.00 0.00 90 1017.8
20260901143107 77 0 0.0 1.0 0.00 0.00 0.00 90 1018.0
20260901141555 76 0 0.0 0.0 0.00 0.00 0.00 92 1018.0
20260901140125 76 0 0.0 2.0 0.00 0.00 0.00 93 1018.2
20260901134544 75 0 0.0 1.0 0.00 0.00 0.00 93 1018.2
20260901133049 74 0 0.0 2.0 0.00 0.00 0.00 93 1017.9
20260901131547 73 0 0.0 0.0 0.00 0.00 0.00 93 1018.1
20260901130045 73 0 0.0 0.0 0.00 0.00 0.00 93 1018.2
20260901124553 72 0 0.0 0.0 0.00 0.00 0.00 93 1018.5
20260901123050 71 0 0.0 0.0 0.00 0.00 0.00 93 1018.6
20260901121548 71 0 0.0 0.0 0.00 0.00 0.00 93 1018.5
20260901120045 70 0 0.0 0.0 0.00 0.00 0.00 93 1018.5
20260901114543 70 0 0.0 0.0 0.00 0.00 0.00 93 1018.3
20260901113056 70 0 0.0 0.0 0.00 0.00 0.00 93 1018.3
20260901111550 70 0 0.0 0.0 0.00 0.00 0.00 93 1018.1
20260901110045 70 0 0.0 0.0 0.00 0.00 0.00 93 1018.1
20260901104544 70 0 0.0 0.0 0.00 0.00 0.00 93 1018.2
20260901103050 70 0 0.0 0.0 0.00 0.00 0.00 93 1018.2
20260901101601 70 0 0.0 0.0 0.00 0.00 0.00 93 1018.3
20260901100054 70 0 0.0 0.0 0.00 0.00 0.00 93 1018.2
20260901094549 70 0 0.0 0.0 0.00 0.00 0.00 93 1018.0
20260901093045 71 0 0.0 0.0 0.00 0.00 0.00 93 1018.2
20260901091553 71 0 0.0 0.0 0.00 0.00 0.00 93 1018.2
20260901090045 71 0 0.0 0.0 0.00 0.00 0.00 93 1018.2
20260901084545 71 0 0.0 0.0 0.00 0.00 0.00 93 1018.2
20260901083046 71 0 0.0 0.0 0.00 0.00 0.00 93 1018.1
20260901081544 71 0 0.0 0.0 0.00 0.00 0.00 93 1018.0
20260901080136 71 0 0.0 0.0 0.00 0.00 0.00 93 1018.1
20260901074546 71 0 0.0 0.0 0.00 0.00 0.00 93 1018.2
20260901073045 71 0 0.0 0.0 0.00 0.00 0.00 93 1018.2
20260901071542 71 0 0.0 0.0 0.00 0.00 0.00 93 1018.3
20260901070045 71 0 0.0 0.0 0.00 0.00 0.00 93 1018.2
20260901064604 71 0 0.0 0.0 0.00 0.00 0.00 93 1018.4
20260901063057 71 0 0.0 0.0 0.00 0.00 0.00 93 1018.4
20260901061600 71 0 0.0 0.0 0.00 0.00 0.00 93 1018.6
20260901060046 72 0 0.0 0.0 0.00 0.00 0.00 93 1019.0
20260901054552 72 0 0.0 0.0 0.00 0.00 0.00 93 1019.2
20260901053049 72 0 0.0 0.0 0.00 0.00 0.00 93 1019.1
20260901051545 72 0 0.0 0.0 0.00 0.00 0.00 93 1018.9
20260901050045 72 0 0.0 0.0 0.00 0.00 0.00 93 1018.9
20260901044606 73 0 0.0 0.0 0.00 0.00 0.00 93 1018.8
20260901043044 73 0 0.0 0.0 0.00 0.00 0.00 93 1018.9
20260901041547 73 0 0.0 0.0 0.00 0.00 0.00 93 1018.7
20260901040057 73 0 0.0 0.0 0.00 0.00 0.00 93 1018.7
20260901034550 73 0 0.0 0.0 0.00 0.00 0.00 93 1018.6
20260901033050 73 0 0.0 0.0 0.00 0.00 0.00 93 1018.2
20260901031543 73 0 0.0 0.0 0.00 0.00 0.00 94 1018.1
20260901030051 73 0 0.0 0.0 0.00 0.00 0.00 94 1018.3
20260901024559 73 0 0.0 0.0 0.00 0.00 0.00 94 1018.6
20260901023050 73 0 0.0 0.0 0.00 0.00 0.00 93 1018.6
20260901021605 73 0 0.0 0.0 0.00 0.00 0.00 93 1018.9
20260901020051 74 0 0.0 0.0 0.00 0.00 0.00 93 1019.3
20260901014551 74 0 0.0 0.0 0.00 0.00 0.00 93 1019.3
20260901013046 74 0 0.0 0.0 0.00 0.00 0.00 93 1019.1
20260901011550 74 0 0.0 0.0 0.00 0.00 0.00 93 1019.1
20260901010045 75 0 0.0 0.0 0.00 0.00 0.00 92 1019.2
20260901004555 75 0 0.0 0.0 0.00 0.00 0.00 92 1018.9
20260901003049 75 0 0.0 0.0 0.00 0.00 0.00 91 1018.8
20260901001545 76 0 0.0 0.0 0.00 0.00 0.00 90 1018.7
20260901000045 76 0 0.0 0.0 0.00 0.00 0.00 89 1018.7
20260831234543 77 0 0.0 0.0 0.00 0.00 0.00 88 1018.4
20260831233049 78 0 0.0 0.0 0.00 0.00 0.00 87 1018.6
20260831231600 78 0 0.0 0.0 0.00 0.00 0.00 86 1018.6